FW3123 Weather Reports


time (UTC)temp
C
wind
direction
speed
KPH
gust
KPH
rain 1hr
cm
rain 24hr
cm
rain mn
cm
humidity
%
barometer
mb
20260504033030 14 212 3.2 11.3 0.00 0.00 0.00 61 1008.4
20260504031530 15 192 4.8 8.0 0.00 0.00 0.00 59 1008.6
20260504030029 15 194 3.2 6.4 0.00 0.00 0.00 59 1008.6
20260504024529 15 198 3.2 9.7 0.00 0.00 0.00 60 1008.6
20260504023027 15 189 4.8 8.0 0.00 0.00 0.00 59 1008.6
20260504021626 15 199 1.6 4.8 0.00 0.00 0.00 57 1008.6
20260504020025 15 183 3.2 6.4 0.00 0.00 0.00 56 1008.6
20260504014528 16 182 1.6 4.8 0.00 0.00 0.00 54 1008.4
20260504013025 16 199 1.6 3.2 0.00 0.00 0.00 51 1008.4
20260504011523 17 213 1.6 3.2 0.00 0.00 0.00 49 1008.2
20260504010023 17 209 1.6 8.0 0.00 0.00 0.00 49 1008.3
20260504004524 18 228 4.8 9.7 0.00 0.00 0.00 46 1008.2
20260504003022 18 267 4.8 11.3 0.00 0.00 0.00 45 1008.1
20260504001521 19 227 6.4 19.3 0.00 0.00 0.00 44 1008.2
20260504000020 19 243 9.7 17.7 0.00 0.00 0.00 43 1008.2
20260503234519 19 245 14.5 22.5 0.00 0.00 0.00 42 1008.3
20260503233023 20 261 16.1 33.8 0.00 0.00 0.00 41 1008.3
20260503231516 20 229 22.5 30.6 0.00 0.00 0.00 40 1008.4
20260503230015 20 226 16.1 25.7 0.00 0.00 0.00 41 1008.5
20260503224514 20 249 14.5 29.0 0.00 0.00 0.00 41 1008.8
20260503223012 20 263 17.7 33.8 0.00 0.00 0.00 41 1008.7
20260503221517 20 234 20.9 33.8 0.00 0.00 0.00 40 1008.8
20260503220009 20 246 20.9 40.2 0.00 0.00 0.00 41 1008.9
20260503214511 20 229 16.1 37.0 0.00 0.00 0.00 40 1009.1
20260503213005 19 196 17.7 40.2 0.00 0.00 0.00 40 1009.3
20260503211504 19 253 22.5 45.1 0.00 0.00 0.00 40 1009.5
20260503210002 18 257 29.0 49.9 0.00 0.00 0.00 40 1009.8
20260503204600 18 207 24.1 54.7 0.00 0.00 0.00 43 1009.7
20260503203058 17 226 17.7 48.3 0.00 0.00 0.00 46 1010.3
20260503201554 17 246 24.1 45.1 0.00 0.00 0.00 46 1010.7
20260503200056 17 248 24.1 41.8 0.00 0.00 0.00 44 1011.1
20260503194558 17 144 20.9 38.6 0.00 0.00 0.00 42 1011.4
20260503193050 17 234 17.7 49.9 0.00 0.00 0.00 43 1011.7
20260503191553 16 173 16.1 40.2 0.00 0.00 0.00 42 1011.6
20260503190045 16 263 19.3 41.8 0.00 0.00 0.00 42 1011.5
20260503184544 16 189 25.7 49.9 0.00 0.00 0.00 45 1011.7
20260503183042 16 178 24.1 40.2 0.00 0.00 0.00 46 1012.1
20260503181542 16 192 20.9 46.7 0.00 0.00 0.00 47 1012.2
20260503180041 15 180 25.7 46.7 0.00 0.00 0.00 49 1012.4
20260503174534 14 254 20.9 51.5 0.00 0.00 0.00 54 1013.0
20260503173032 13 227 14.5 46.7 0.00 0.00 0.00 57 1013.4
20260503171528 12 247 20.9 46.7 0.00 0.00 0.00 59 1014.0
20260503120132 10 211 17.7 30.6 0.00 0.00 0.00 54 1016.4
20260503081542 10 250 11.3 22.5 0.00 0.00 0.00 48 1017.4
20260503071550 8 237 11.3 17.7 0.00 0.00 0.00 51 1017.6
20260503054521 7 250 3.2 9.7 0.00 0.00 0.00 59 1018.5
20260503053020 7 214 3.2 8.0 0.00 0.00 0.00 58 1018.6
20260503051514 7 219 3.2 11.3 0.00 0.00 0.00 58 1018.7
20260503050021 8 229 6.4 16.1 0.00 0.00 0.00 57 1018.7
20260503044509 8 212 6.4 12.9 0.00 0.00 0.00 57 1019.0
20260503043008 8 223 4.8 11.3 0.00 0.00 0.00 58 1018.9
20260503041507 7 234 6.4 11.3 0.00 0.00 0.00 60 1019.1
20260503040006 7 235 6.4 11.3 0.00 0.00 0.00 63 1019.1
20260503034504 6 223 4.8 8.0 0.00 0.00 0.00 68 1019.3